"Pseudo-MPEC" for JKt020

Created 2025 May 12 0:31:02 UT using Find_Orb

Click here for an explanation of pseudo-MPECs

 
 Astrometry: 
     JKt020 *3C2025 04 26.57687322 23 21.655-04 50 53.02   ~4R3H 23.2 rVNEOCPT09
     JKt020  3C2025 04 26.58814222 23 23.611-04 50 38.90   ~4R3H 22.4 rVNEOCPT09
     JKt020  3C2025 04 26.59940422 23 25.577-04 50 25.04   ~4R3H 22.3 rVNEOCPT09
     JKt020  3C2025 04 26.62265522 23 29.662-04 49 55.88   ~4R3Hx22.5 rVNEOCPT09
     JKt020  3C2025 04 27.58591922 26 17.724-04 29 58.99   ~4S1H 22.6 rVNEOCPT09
     JKt020  3C2025 04 27.59715122 26 19.668-04 29 44.99   ~4S1H 22.4 rVNEOCPT09
     JKt020  3C2025 04 27.60871222 26 21.667-04 29 30.66   ~4S1H 22.4 rVNEOCPT09
     JKt020  3C2025 04 27.61997222 26 23.606-04 29 16.66   ~4S1H 22.3 rVNEOCPT09
     JKt020  3C2025 04 28.61593422 29 16.046-04 08 42.11   ~4SFH 22.48GVNEOCPT14
     JKt020  3C2025 04 28.61714522 29 16.246-04 08 40.67   ~4SFH 22.33GVNEOCPT14
     JKt020  3C2025 04 28.61848022 29 16.480-04 08 39.03   ~4SFH 22.20GVNEOCPT14

Station data:
(T09) Mauna Kea-UH/Tholen NEO Follow-Up (Subaru)  (N19.825504 W155.476019)
   US/Hawaii.  Observer J. Kleyna. 8.2-m f/2.2 Subaru reflector.
(T14) Mauna Kea-UH/Tholen NEO Follow-Up (CFHT)  (N19.825252 W155.468876)
   US/Hawaii.  Observer R. Weryk. 3.6-m Canada-France-Hawaii Telescope.

Orbital elements:  JKt020
   Perihelion 2025 Mar 28.11236 +/- 6.57 TT =  2:41:47 (JD 2460762.61236)
Epoch 2025 Apr 28.0 TT = JDT 2460793.5   Earth MOID: 0.2492      AutoNEOCP
M   7.27248766 +/- 4.7              (J2000 ecliptic)
n   0.23544974 +/- 0.102            Peri.   31.54488 +/- 5.7
a   2.59739043 +/- 0.751            Node   237.00594 +/- 2.7
e   0.5161114 +/- 0.115             Incl.    6.54146 +/- 0.09
P   4.18606                H 19.61  G  0.15   U 11.2
q 1.25684749 +/- 0.0651    Q 3.93793336 +/- 1.44
10 of 11 observations 2025 Apr. 26-28; mean residual 0".05
Residuals in arcseconds: 
250426 T09  .05+  .05-    250427 T09  .06-  .08-    250428 T14  .04+  .04+    
250426 T09  .06-  .08+    250427 T09  .01-  .01+    250428 T14  .06-  .02-    
250426 T09  .02+  .04-    250427 T09  .05+  .02+    250428 T14  .02+  .03-    
250426 T09( .67+  .25+)   250427 T09  .01+  .07+    

Ephemerides (geocentric):
Date (UTC) HH   RA             Dec           delta  r     elong  mag " sig PA
---- --------  ------------   ------------  ------ ------ -----  --- --------
2025 05 12 01  23 05 54.557   +00 21 08.22  1.4478 1.3487  63.7 22.7 17.9  97
2025 05 12 02  23 06 01.025   +00 21 56.81  1.4478 1.3489  63.7 22.7 18.0  97
2025 05 12 03  23 06 07.492   +00 22 45.39  1.4478 1.3490  63.7 22.7 18.2  97
2025 05 12 04  23 06 13.956   +00 23 33.95  1.4478 1.3492  63.7 22.7 18.4  96
2025 05 12 05  23 06 20.418   +00 24 22.51  1.4478 1.3494  63.7 22.7 18.5  96
2025 05 12 06  23 06 26.878   +00 25 11.05  1.4478 1.3495  63.7 22.7 18.7  96
2025 05 12 07  23 06 33.336   +00 25 59.58  1.4477 1.3497  63.7 22.7 18.9  96
2025 05 12 08  23 06 39.792   +00 26 48.10  1.4477 1.3499  63.7 22.7 19.0  96
2025 05 12 09  23 06 46.246   +00 27 36.60  1.4477 1.3500  63.7 22.7 19.2  96
2025 05 12 10  23 06 52.697   +00 28 25.10  1.4477 1.3502  63.8 22.7 19.4  96
2025 05 12 11  23 06 59.146   +00 29 13.58  1.4477 1.3503  63.8 22.7 19.5  95
2025 05 12 12  23 07 05.594   +00 30 02.05  1.4477 1.3505  63.8 22.7 19.7  95
2025 05 12 13  23 07 12.039   +00 30 50.51  1.4476 1.3507  63.8 22.7 19.9  95
2025 05 12 14  23 07 18.481   +00 31 38.95  1.4476 1.3508  63.8 22.7 20.1  95
2025 05 12 15  23 07 24.922   +00 32 27.38  1.4476 1.3510  63.8 22.7 20.2  95
2025 05 12 16  23 07 31.361   +00 33 15.81  1.4476 1.3511  63.8 22.7 20.4  95
2025 05 12 17  23 07 37.797   +00 34 04.22  1.4476 1.3513  63.8 22.7 20.6  95
2025 05 12 18  23 07 44.231   +00 34 52.61  1.4476 1.3515  63.8 22.7 20.8  95
2025 05 12 19  23 07 50.663   +00 35 41.00  1.4475 1.3516  63.8 22.7 21.0  94
2025 05 12 20  23 07 57.093   +00 36 29.37  1.4475 1.3518  63.9 22.7 21.1  94
2025 05 12 21  23 08 03.521   +00 37 17.73  1.4475 1.3520  63.9 22.7 21.3  94
2025 05 12 22  23 08 09.947   +00 38 06.08  1.4475 1.3521  63.9 22.7 21.5  94
2025 05 12 23  23 08 16.370   +00 38 54.42  1.4475 1.3523  63.9 22.7 21.7  94
2025 05 13 00  23 08 22.792   +00 39 42.74  1.4475 1.3525  63.9 22.7 21.9  94
2025 05 13 01  23 08 29.211   +00 40 31.06  1.4474 1.3526  63.9 22.7 22.1  94
2025 05 13 02  23 08 35.628   +00 41 19.36  1.4474 1.3528  63.9 22.7 22.2  94
2025 05 13 03  23 08 42.043   +00 42 07.64  1.4474 1.3529  63.9 22.7 22.4  94
2025 05 13 04  23 08 48.455   +00 42 55.92  1.4474 1.3531  63.9 22.7 22.6  93
2025 05 13 05  23 08 54.866   +00 43 44.18  1.4474 1.3533  64.0 22.7 22.8  93
2025 05 13 06  23 09 01.275   +00 44 32.43  1.4474 1.3534  64.0 22.7 23.0  93
2025 05 13 07  23 09 07.681   +00 45 20.67  1.4473 1.3536  64.0 22.7 23.2  93
2025 05 13 08  23 09 14.085   +00 46 08.90  1.4473 1.3538  64.0 22.7 23.4  93
2025 05 13 09  23 09 20.487   +00 46 57.12  1.4473 1.3539  64.0 22.7 23.6  93
2025 05 13 10  23 09 26.887   +00 47 45.32  1.4473 1.3541  64.0 22.7 23.8  93
2025 05 13 11  23 09 33.285   +00 48 33.51  1.4473 1.3543  64.0 22.7 24.0  93
2025 05 13 12  23 09 39.680   +00 49 21.69  1.4473 1.3544  64.0 22.7 24.2  93
2025 05 13 13  23 09 46.074   +00 50 09.85  1.4472 1.3546  64.0 22.7 24.4  92
2025 05 13 14  23 09 52.465   +00 50 58.00  1.4472 1.3548  64.0 22.7 24.6  92
2025 05 13 15  23 09 58.854   +00 51 46.14  1.4472 1.3549  64.1 22.7 24.8  92
2025 05 13 16  23 10 05.241   +00 52 34.27  1.4472 1.3551  64.1 22.7 25.0  92
2025 05 13 17  23 10 11.626   +00 53 22.39  1.4472 1.3552  64.1 22.7 25.2  92
2025 05 13 18  23 10 18.009   +00 54 10.49  1.4472 1.3554  64.1 22.7 25.4  92
2025 05 13 19  23 10 24.389   +00 54 58.58  1.4471 1.3556  64.1 22.7 25.6  92
2025 05 13 20  23 10 30.768   +00 55 46.66  1.4471 1.3557  64.1 22.7 25.8  92
2025 05 13 21  23 10 37.144   +00 56 34.73  1.4471 1.3559  64.1 22.7 26.0  92
2025 05 13 22  23 10 43.518   +00 57 22.78  1.4471 1.3561  64.1 22.7 26.3  92
2025 05 13 23  23 10 49.890   +00 58 10.82  1.4471 1.3562  64.1 22.7 26.5  91
2025 05 14 00  23 10 56.260   +00 58 58.85  1.4470 1.3564  64.1 22.7 26.7  91